Cedar Bluff, VA

3:11 PM EDT on August 25, 2016 (GMT -0400)
Tazewell County

Weather History for KJFZ - August, 2012

Change the Weather History Date:

Saturday, August 4, 2012

  Actual Average (KBLF) Record (KBLF)
Temperature  
Mean Temperature 75 °F 73 °F  
Max Temperature 82 °F 81 °F 90 °F (1995)
Min Temperature 68 °F 64 °F 53 °F (1965)
Degree Days  
Heating Degree Days 0 0  
Month to date heating degree days 0  
Since 1 June heating degree days 24  
Since 1 July heating degree days 2  
Cooling Degree Days 10 8  
Month to date cooling degree days 32  
Year to date cooling degree days 537  
Since 1 June cooling degree days 446  
Growing Degree Days 25 (Base 50)    
Moisture  
Dew Point 69 °F    
Average Humidity 83    
Maximum Humidity 100    
Minimum Humidity 70    
Precipitation  
Precipitation 0.00 in 0.12 in 0.66 in (2001)
Month to date precipitation 0.46  
Year to date precipitation 25.59  
Snow  
Snow 0.00 in - - ()
Month to date snowfall  
Since 1 June snowfall  
Since 1 July snowfall  
Snow Depth -    
Sea Level Pressure  
Sea Level Pressure 30.18 in    
Wind  
Wind Speed 2 mph (South)    
Max Wind Speed 9 mph    
Max Gust Speed -    
Visibility 10 miles    
Events      
T = Trace of Precipitation, MM = Missing Value Source: NWS Daily Summary

Daily Weather History Graph

Daily Weather History Graph

Search for Another Location

Airport or City:

Trip Planner

Search our weather history database for the weather conditions in past years. The results will help you decide how hot, cold, wet, or windy it might be!

Date:

Astronomy

Aug. 04, 2012 Rise Set
Actual Time 6:35 AM EDT 8:30 PM EDT
Civil Twilight 6:06 AM EDT 8:59 PM EDT
Nautical Twilight 5:32 AM EDT 9:33 PM EDT
Astronomical Twilight 4:54 AM EDT 10:10 PM EDT
Moon 9:45 PM EDT (8/4) 9:15 AM EDT (8/4)
Length of Visible Light 14h 52m
Length of Day
13h 55m
Waning Gibbous, 92% of the Moon is Illuminated
Aug 4
Waning Gibbous
Aug 9
Last Quarter
Aug 17
New
Aug 24
First Quarter
Aug 31
Full

Hourly Weather History & Observations

Time (EDT) Temp. Heat Index Dew Point Humidity Pressure Visibility Wind Dir Wind Speed Gust Speed Precip Events Conditions
12:55 AM 68.0 °F - 64.4 °F 88% 30.13 in 10.0 mi Calm Calm - N/A   Overcast
1:15 AM 69.8 °F - 64.4 °F 83% 30.13 in 9.0 mi Calm Calm - N/A   Scattered Clouds
1:35 AM 69.8 °F - 64.4 °F 83% 30.13 in 10.0 mi Calm Calm - N/A   Partly Cloudy
1:55 AM 68.0 °F - 64.4 °F 88% 30.12 in 10.0 mi Calm Calm - N/A   Partly Cloudy
2:15 AM 69.8 °F - 66.2 °F 88% 30.11 in 10.0 mi Calm Calm - N/A   Mostly Cloudy
2:35 AM 69.8 °F - 66.2 °F 88% 30.11 in 9.0 mi Calm Calm - N/A   Overcast
2:55 AM 69.8 °F - 68.0 °F 94% 30.12 in 10.0 mi Calm Calm - N/A   Mostly Cloudy
3:15 AM 69.8 °F - 69.8 °F 100% 30.11 in 10.0 mi Calm Calm - N/A   Overcast
3:35 AM 69.8 °F - 69.8 °F 100% 30.12 in 9.0 mi Calm Calm - N/A   Overcast
3:55 AM 69.8 °F - 69.8 °F 100% 30.13 in 9.0 mi Calm Calm - N/A   Overcast
4:15 AM 71.6 °F - 69.8 °F 94% 30.13 in 10.0 mi Calm Calm - N/A   Overcast
4:35 AM 71.6 °F - 69.8 °F 94% 30.14 in 10.0 mi Calm Calm - N/A   Overcast
4:55 AM 71.6 °F - 68.0 °F 88% 30.15 in 10.0 mi Calm Calm - N/A   Overcast
5:15 AM 73.4 °F - 68.0 °F 83% 30.15 in 10.0 mi Variable 4.6 mph - N/A   Overcast
5:35 AM 71.6 °F - 69.8 °F 94% 30.15 in 10.0 mi Calm Calm - N/A   Overcast
5:55 AM 71.6 °F - 68.0 °F 88% 30.15 in 10.0 mi Calm Calm - N/A   Overcast
6:15 AM 71.6 °F - 68.0 °F 88% 30.15 in 10.0 mi Variable 3.5 mph - N/A   Mostly Cloudy
6:35 AM 71.6 °F - 66.2 °F 83% 30.15 in 10.0 mi Variable 3.5 mph - N/A   Overcast
6:55 AM 71.6 °F - 68.0 °F 88% 30.15 in 10.0 mi Calm Calm - N/A   Mostly Cloudy
7:15 AM 71.6 °F - 68.0 °F 88% 30.16 in 10.0 mi Calm Calm - N/A   Scattered Clouds
7:35 AM 71.6 °F - 66.2 °F 83% 30.17 in 10.0 mi SSW 3.5 mph - N/A   Mostly Cloudy
7:55 AM 71.6 °F - 68.0 °F 88% 30.17 in 10.0 mi Calm Calm - N/A   Mostly Cloudy
8:15 AM 71.6 °F - 66.2 °F 83% 30.18 in 10.0 mi Calm Calm - N/A   Scattered Clouds
8:35 AM 71.6 °F - 68.0 °F 88% 30.19 in 10.0 mi Calm Calm - N/A   Partly Cloudy
8:55 AM 71.6 °F - 69.8 °F 94% 30.19 in 10.0 mi Calm Calm - N/A   Clear
9:15 AM 71.6 °F - 69.8 °F 94% 30.20 in 10.0 mi Calm Calm - N/A   Scattered Clouds
9:35 AM 71.6 °F - 71.6 °F 100% 30.20 in 10.0 mi Calm Calm - N/A   Mostly Cloudy
9:55 AM 71.6 °F - 69.8 °F 94% 30.20 in 10.0 mi Variable 3.5 mph - N/A   Mostly Cloudy
10:15 AM 71.6 °F - 69.8 °F 94% 30.21 in 10.0 mi SSE 4.6 mph - N/A   Mostly Cloudy
10:35 AM 73.4 °F - 69.8 °F 88% 30.21 in 10.0 mi Variable 3.5 mph - N/A   Scattered Clouds
10:55 AM 75.2 °F - 69.8 °F 83% 30.22 in 10.0 mi Calm Calm - N/A   Partly Cloudy
11:15 AM 73.4 °F - 69.8 °F 88% 30.22 in 10.0 mi Calm Calm - N/A   Partly Cloudy
11:35 AM 73.4 °F - 69.8 °F 88% 30.22 in 10.0 mi SSE 4.6 mph - N/A   Partly Cloudy
11:55 AM 75.2 °F - 71.6 °F 89% 30.22 in 10.0 mi Calm Calm - N/A   Partly Cloudy
12:15 PM 78.8 °F - 71.6 °F 78% 30.22 in 10.0 mi Variable 3.5 mph - N/A   Clear
12:35 PM 80.6 °F 84.6 °F 71.6 °F 74% 30.21 in 10.0 mi Variable 4.6 mph - N/A   Clear
12:55 PM 80.6 °F 84.6 °F 71.6 °F 74% 30.21 in 10.0 mi Variable 4.6 mph - N/A   Clear
1:35 PM 78.8 °F - 69.8 °F 74% 30.22 in 10.0 mi Variable 5.8 mph - N/A   Clear
1:55 PM 78.8 °F - 69.8 °F 74% 30.22 in 10.0 mi Variable 4.6 mph - N/A   Clear
2:15 PM 78.8 °F - 69.8 °F 74% 30.22 in 10.0 mi Variable 4.6 mph - N/A   Clear
2:35 PM 78.8 °F - 69.8 °F 74% 30.22 in 10.0 mi South 3.5 mph - N/A   Clear
2:55 PM 80.6 °F 84.6 °F 71.6 °F 74% 30.21 in 10.0 mi Calm Calm - N/A   Clear
3:15 PM 82.4 °F 87.2 °F 71.6 °F 70% 30.20 in 10.0 mi Variable 3.5 mph - N/A   Clear
3:35 PM 80.6 °F 84.6 °F 71.6 °F 74% 30.19 in 10.0 mi Variable 4.6 mph - N/A   Partly Cloudy
3:55 PM 78.8 °F - 71.6 °F 78% 30.19 in 10.0 mi SSE 4.6 mph - N/A   Partly Cloudy
4:15 PM 80.6 °F 84.6 °F 71.6 °F 74% 30.18 in 10.0 mi South 9.2 mph - N/A   Partly Cloudy
4:35 PM 80.6 °F 84.6 °F 71.6 °F 74% 30.18 in 10.0 mi South 8.1 mph - N/A   Clear
4:55 PM 80.6 °F 83.9 °F 69.8 °F 70% 30.18 in 10.0 mi South 9.2 mph - N/A   Clear
5:15 PM 82.4 °F 87.2 °F 71.6 °F 70% 30.17 in 10.0 mi South 8.1 mph - N/A   Partly Cloudy
5:35 PM 80.6 °F 83.9 °F 69.8 °F 70% 30.17 in 10.0 mi South 6.9 mph - N/A   Partly Cloudy
5:55 PM 80.6 °F 83.9 °F 69.8 °F 70% 30.18 in 10.0 mi Variable 4.6 mph - N/A   Clear
6:15 PM 80.6 °F 83.9 °F 69.8 °F 70% 30.18 in 10.0 mi South 3.5 mph - N/A   Clear
6:35 PM 78.8 °F - 71.6 °F 78% 30.19 in 10.0 mi Variable 4.6 mph - N/A   Clear
6:55 PM 78.8 °F - 71.6 °F 78% 30.20 in 10.0 mi Variable 4.6 mph - N/A   Partly Cloudy
7:15 PM 78.8 °F - 69.8 °F 74% 30.21 in 10.0 mi Variable 3.5 mph - N/A   Partly Cloudy
7:35 PM 78.8 °F - 69.8 °F 74% 30.21 in 10.0 mi Variable 6.9 mph - N/A   Partly Cloudy
7:55 PM 77.0 °F - 69.8 °F 78% 30.21 in 10.0 mi South 8.1 mph - N/A   Clear
8:15 PM 77.0 °F - 69.8 °F 78% 30.21 in 10.0 mi Variable 4.6 mph - N/A   Clear
8:35 PM 75.2 °F - 69.8 °F 83% 30.22 in 10.0 mi South 3.5 mph - N/A   Clear
8:55 PM 75.2 °F - 69.8 °F 83% 30.21 in 10.0 mi South 4.6 mph - N/A   Clear
9:15 PM 73.4 °F - 69.8 °F 88% 30.21 in 10.0 mi Calm Calm - N/A   Clear
9:35 PM 73.4 °F - 69.8 °F 88% 30.23 in 10.0 mi Calm Calm - N/A   Clear
9:55 PM 73.4 °F - 69.8 °F 88% 30.23 in 10.0 mi Calm Calm - N/A   Clear
10:15 PM 73.4 °F - 68.0 °F 83% 30.23 in 10.0 mi SE 4.6 mph - N/A   Clear
10:35 PM 73.4 °F - 66.2 °F 78% 30.22 in 10.0 mi SSE 3.5 mph - N/A   Clear
10:55 PM 73.4 °F - 66.2 °F 78% 30.22 in 10.0 mi SSE 4.6 mph - N/A   Clear
11:15 PM 75.2 °F - 66.2 °F 73% 30.23 in 10.0 mi Calm Calm - N/A   Clear
11:35 PM 73.4 °F - 66.2 °F 78% 30.24 in 10.0 mi South 3.5 mph - N/A   Clear
11:55 PM 73.4 °F - 66.2 °F 78% 30.25 in 10.0 mi Calm Calm - N/A   Clear